sanya , China , ASIA

  • Thursday
    July 18

      Cloudy

      82 °F

      No wind

       

  • Friday
    July 19

    Cloudy  Cloudy

    93 °F  82 °F

    No wind  No wind

        

  • Saturday
    July 20

    Cloudy  Cloudy

    93 °F  82 °F

    No wind  No wind

        

  • Sunday
    July 21

    Cloudy  Light rain

    91 °F  81 °F

    No wind  No wind

        

  • Monday
    July 22

    Light rain  Light rain

    90 °F  77 °F

    No wind  No wind

        

  • Tuesday
    July 23

    Light rain  Light rain

    90 °F  77 °F

    No wind  No wind

        

  • Wednesday
    July 24

    Light rain  Light rain

    90 °F  79 °F

    No wind  No wind

        

Date   Weather Temperature Humidity Total_rain Visibility Wind
23:00 Cloudy 83°F 85.4% 0mm 999.9km Southwest  3.2m/s
02:00 Cloudy 83°F 86.2% 0mm 999.9km Southwest  4.7m/s
05:00 Cloudy 83°F 86.6% 0mm 999.9km Southwest  4.2m/s
08:00 Cloudy 87°F 85.2% 0mm 999.9km Southwest  3.8m/s
11:00 Cloudy 91°F 82.5% 0mm 999.9km Southwest  4.6m/s
14:00 Cloudy 93°F 81.6% 0mm 999.9km Southwest  4.6m/s
17:00 Cloudy 91°F 81.9% 0mm 999.9km Southwest  3.6m/s
20:00 Cloudy 85°F 77.6% 0mm 999.9km Southwest  2.5m/s
23:00 Cloudy 84°F 86% 0mm 999.9km Southwest  3.1m/s
02:00 Cloudy 83°F 86.8% 0mm 999.9km Southwest  4.0m/s
05:00 Cloudy 83°F 86.8% 0mm 999.9km Southwest  3.6m/s
08:00 Cloudy 87°F 86% 0mm 999.9km Southwest  3.0m/s
11:00 Cloudy 92°F 82.6% 0mm 999.9km Southwest  3.9m/s
14:00 Cloudy 93°F 82.7% 0mm 999.9km Southwest  4.1m/s
17:00 Cloudy 92°F 82.7% 0mm 999.9km Southwest  3.0m/s
20:00 Cloudy 85°F 78.6% 0mm 999.9km Southwest  2.2m/s
23:00 Cloudy 84°F 87% 0mm 999.9km Southeast  2.7m/s
02:00 Cloudy 83°F 87.6% 0mm 999.9km Southeast  3.3m/s
05:00 Cloudy 83°F 87.5% 0mm 999.9km Southwest  3.3m/s
08:00 Cloudy 86°F 86.2% 0mm 999.9km Southwest  3.1m/s
11:00 Cloudy 91°F 80.8% 0mm 999.9km Southwest  3.2m/s
14:00 Cloudy 91°F 82.8% 0mm 999.9km Southwest  3.4m/s
17:00 Cloudy 90°F 82.9% 0mm 999.9km Southwest  2.4m/s
20:00 Cloudy 86°F 77.3% 0mm 999.9km Southwest  1.7m/s
23:00 Light rain 83°F 85.9% 0.1mm 999.9km Southeast  2.3m/s
02:00 Light rain 81°F 86% 0.7mm 999.9km Southwest  2.8m/s
05:00 Light rain 81°F 85.3% 1.3mm 999.9km Southwest  2.5m/s
08:00 Light rain 83°F 84.2% 2mm 999.9km Southwest  2.6m/s
11:00 Light rain 89°F 79.1% 0.2mm 999.9km Southwest  3.6m/s
14:00 Light rain 89°F 81.6% 0.4mm 999.9km Southwest  3.3m/s
17:00 Light rain 87°F 83.7% 0.1mm 999.9km Southwest  2.3m/s
20:00 Light rain 84°F 76.4% 0.4mm 999.9km Southwest  1.9m/s
23:00 Light rain 81°F 83.4% 0.2mm 999.9km Southwest  2.7m/s
02:00 Overcast 82°F 83.6% 0mm 999.9km Southwest  3.3m/s
05:00 Light rain 80°F 83.9% 0.1mm 999.9km Southwest  3.0m/s
08:00 Light rain 83°F 83.1% 0.4mm 999.9km Southwest  2.8m/s
11:00 Light rain 85°F 81.7% 2.5mm 999.9km Southwest  7.2m/s
14:00 Light rain 89°F 80.3% 0.1mm 999.9km Southwest  3.6m/s
17:00 Moderate rain 84°F 82.3% 7.2mm 999.9km Southeast  4.3m/s
20:00 Light rain 77°F 76.9% 0.1mm 999.9km Southwest  3.5m/s
23:00 Light rain 78°F 86% 1.4mm 999.9km Southwest  5.7m/s
02:00 Light rain 78°F 84.8% 0.1mm 999.9km Southwest  2.2m/s
05:00 Moderate rain 77°F 84.6% 8.3mm 999.9km Southwest  5.6m/s
08:00 Light rain 84°F 84.5% 0.1mm 999.9km Southwest  3.1m/s
11:00 Moderate rain 87°F 83.4% 4.1mm 999.9km Northeast  2.6m/s
14:00 Light rain 88°F 83.2% 0.1mm 999.9km Southwest  4.6m/s
17:00 Moderate rain 89°F 81.9% 5.7mm 999.9km Southwest  2.7m/s
20:00 Light rain 82°F 78.7% 0.1mm 999.9km Southwest  3.2m/s
23:00 Moderate rain 83°F 87% 4.3mm 999.9km Southwest  3.4m/s
02:00 Light rain 81°F 85.8% 0.1mm 999.9km Southwest  3.9m/s
05:00 Moderate rain 79°F 85.1% 5.5mm 999.9km Southeast  1.3m/s